,,PA_Meas_PMT16A,,PR_Meas_QMR101_102,,RH_Meas_QMH101,,SR_Meas_QMS101,,TA_Meas_QMH101,,GenWind,,GenWind,
time,status,PA,status,PR,status,RH,status,SR,status,TA,status,DirAvg,status,SpdAvg,
2010-10-24, 00:00:04,VALID,917.898,VALID,0,VALID,97.069,VALID,0,VALID,18.572,VALID,37,VALID,0.0167969,
2010-10-24, 00:01:04,VALID,917.884,VALID,0,VALID,97.0308,VALID,0,VALID,18.572,VALID,38,VALID,0.344141,
2010-10-24, 00:02:04,VALID,917.872,VALID,0,VALID,97.0156,VALID,0,VALID,18.533,VALID,38,VALID,0.258594,
2010-10-24, 00:03:04,VALID,917.853,VALID,0,VALID,97.0156,VALID,0,VALID,18.5135,VALID,38,VALID,0.502734,
2010-10-24, 00:04:04,VALID,917.812,VALID,0,VALID,97.0308,VALID,0,VALID,18.4926,VALID,38,VALID,0.298047,
2010-10-24, 00:05:04,VALID,917.809,VALID,0,VALID,97.0308,VALID,0,VALID,18.494,VALID,38,VALID,0,
2010-10-24, 00:06:04,VALID,917.779,VALID,0,VALID,97.0613,VALID,0,VALID,18.494,VALID,38,VALID,0.234375,
2010-10-24, 00:07:04,VALID,917.795,VALID,0,VALID,97.0537,VALID,0,VALID,18.494,VALID,38,VALID,0.46875,
2010-10-24, 00:08:04,VALID,917.785,VALID,0,VALID,97.0461,VALID,0,VALID,18.4745,VALID,38,VALID,0.680078,
2010-10-24, 00:09:04,VALID,917.755,VALID,0,VALID,97.0232,VALID,0,VALID,18.455,VALID,38,VALID,0.619531,
2010-10-24, 00:10:04,VALID,917.762,VALID,0,VALID,97.0232,VALID,0,VALID,18.4355,VALID,38,VALID,0.455078,
2010-10-24, 00:11:04,VALID,917.74,VALID,0,VALID,97.0232,VALID,0,VALID,18.416,VALID,38,VALID,0.471875,
2010-10-24, 00:12:04,VALID,917.723,VALID,0,VALID,97.008,VALID,0,VALID,18.416,VALID,38,VALID,0.505078,
2010-10-24, 00:13:04,VALID,917.725,VALID,0,VALID,97.0003,VALID,0,VALID,18.3965,VALID,38,VALID,0.362891,
2010-10-24, 00:14:04,VALID,917.662,VALID,0,VALID,96.9851,VALID,0,VALID,18.3965,VALID,38,VALID,0.265625,
2010-10-24, 00:15:04,VALID,917.662,VALID,0,VALID,96.9851,VALID,0,VALID,18.416,VALID,38,VALID,0.70625,
2010-10-24, 00:16:04,VALID,917.636,VALID,0,VALID,96.947,VALID,0,VALID,18.3965,VALID,38,VALID,0.512109,
2010-10-24, 00:17:04,VALID,917.6,VALID,0,VALID,96.9394,VALID,0,VALID,18.416,VALID,38,VALID,0.620313,
2010-10-24, 00:18:04,VALID,917.585,VALID,0,VALID,96.9927,VALID,0,VALID,18.416,VALID,37,VALID,0.567187,
2010-10-24, 00:19:04,VALID,917.613,VALID,0,VALID,97.0003,VALID,0,VALID,18.4355,VALID,37,VALID,0.238672,
2010-10-24, 00:20:04,VALID,917.615,VALID,0,VALID,96.9927,VALID,0,VALID,18.455,VALID,38,VALID,0.0910156,
2010-10-24, 00:21:04,VALID,917.596,VALID,0,VALID,97.008,VALID,0,VALID,18.4355,VALID,38,VALID,0.266406,
2010-10-24, 00:22:04,VALID,917.602,VALID,0,VALID,97.0003,VALID,0,VALID,18.4536,VALID,38,VALID,0.391406,
2010-10-24, 00:23:04,VALID,917.589,VALID,0,VALID,97.0537,VALID,0,VALID,18.5135,VALID,38,VALID,0.633594,
2010-10-24, 00:24:04,VALID,917.577,VALID,0,VALID,96.9394,VALID,0,VALID,18.4745,VALID,38,VALID,0.628906,
2010-10-24, 00:25:04,VALID,917.573,VALID,0,VALID,96.8936,VALID,0,VALID,18.455,VALID,38,VALID,0.321484,
2010-10-24, 00:26:04,VALID,917.574,VALID,0,VALID,96.9394,VALID,0,VALID,18.455,VALID,38,VALID,0.486719,
2010-10-24, 00:27:04,VALID,917.559,VALID,0,VALID,96.8784,VALID,0,VALID,18.4355,VALID,37,VALID,0.992578,
2010-10-24, 00:28:04,VALID,917.562,VALID,0,VALID,96.8403,VALID,0,VALID,18.416,VALID,38,VALID,1.05117,
2010-10-24, 00:29:04,VALID,917.533,VALID,0,VALID,96.8936,VALID,0,VALID,18.416,VALID,38,VALID,0.689453,
2010-10-24, 00:30:04,VALID,917.516,VALID,0,VALID,96.9698,VALID,0,VALID,18.4355,VALID,38,VALID,0.557031,
2010-10-24, 00:31:04,VALID,917.542,VALID,0,VALID,96.9927,VALID,0,VALID,18.455,VALID,38,VALID,0.448438,
2010-10-24, 00:32:04,VALID,917.522,VALID,0,VALID,97.0613,VALID,0,VALID,18.494,VALID,38,VALID,0.376953,
2010-10-24, 00:33:04,VALID,917.511,VALID,0,VALID,97.1223,VALID,0,VALID,18.5525,VALID,38,VALID,0.205469,
2010-10-24, 00:34:04,VALID,917.524,VALID,0,VALID,97.0613,VALID,0,VALID,18.5705,VALID,37,VALID,0,
2010-10-24, 00:35:04,VALID,917.501,VALID,0,VALID,97.0232,VALID,0,VALID,18.5914,VALID,38,VALID,0,
2010-10-24, 00:36:04,VALID,917.517,VALID,0,VALID,96.9394,VALID,0,VALID,18.572,VALID,37,VALID,0,
2010-10-24, 00:37:04,VALID,917.488,VALID,0,VALID,96.8555,VALID,0,VALID,18.533,VALID,38,VALID,0.75625,
2010-10-24, 00:38:04,VALID,917.471,VALID,0,VALID,96.8403,VALID,0,VALID,18.5135,VALID,38,VALID,1.19023,
2010-10-24, 00:39:04,VALID,917.453,VALID,0,VALID,96.8707,VALID,0,VALID,18.494,VALID,38,VALID,0.625391,
2010-10-24, 00:40:04,VALID,917.459,VALID,0,VALID,96.8707,VALID,0,VALID,18.494,VALID,38,VALID,0.809766,
2010-10-24, 00:41:04,VALID,917.452,VALID,0,VALID,96.8479,VALID,0,VALID,18.4536,VALID,38,VALID,1.04766,
2010-10-24, 00:42:04,VALID,917.375,VALID,0,VALID,96.9012,VALID,0,VALID,18.4731,VALID,38,VALID,0.407813,
2010-10-24, 00:43:04,VALID,917.37,VALID,0,VALID,96.886,VALID,0,VALID,18.494,VALID,38,VALID,0.186328,
2010-10-24, 00:44:04,VALID,917.393,VALID,0,VALID,96.9165,VALID,0,VALID,18.5135,VALID,37,VALID,0.241797,
2010-10-24, 00:45:04,VALID,917.412,VALID,0,VALID,96.8707,VALID,0,VALID,18.4745,VALID,38,VALID,0.404687,
2010-10-24, 00:46:04,VALID,917.347,VALID,0,VALID,96.8555,VALID,0,VALID,18.494,VALID,37,VALID,0.563281,
2010-10-24, 00:47:04,VALID,917.344,VALID,0,VALID,96.8707,VALID,0,VALID,18.494,VALID,37,VALID,0.380469,
2010-10-24, 00:48:04,VALID,917.316,VALID,0,VALID,96.9851,VALID,0,VALID,18.5135,VALID,37,VALID,0.828906,
2010-10-24, 00:49:04,VALID,917.277,VALID,0,VALID,96.9698,VALID,0,VALID,18.533,VALID,38,VALID,0.898828,
2010-10-24, 00:50:04,VALID,917.293,VALID,0,VALID,96.9012,VALID,0,VALID,18.494,VALID,5,VALID,0.607031,
2010-10-24, 00:51:04,VALID,917.246,VALID,0,VALID,96.9012,VALID,0,VALID,18.4745,VALID,4,VALID,0.758594,
2010-10-24, 00:52:04,VALID,917.254,VALID,0,VALID,96.8784,VALID,0,VALID,18.4745,VALID,4,VALID,0.937891,
2010-10-24, 00:53:04,VALID,917.24,VALID,0,VALID,96.7183,VALID,0,VALID,18.3965,VALID,4,VALID,1.24219,
2010-10-24, 00:54:04,VALID,917.244,VALID,0,VALID,96.7183,VALID,0,VALID,18.377,VALID,4,VALID,1.08281,
2010-10-24, 00:55:04,VALID,917.226,VALID,0,VALID,96.8174,VALID,0,VALID,18.416,VALID,4,VALID,0.877734,
2010-10-24, 00:56:04,VALID,917.228,VALID,0,VALID,96.8098,VALID,0,VALID,18.416,VALID,22,VALID,1.21367,
2010-10-24, 00:57:04,VALID,917.176,VALID,0,VALID,96.7335,VALID,0,VALID,18.3965,VALID,23,VALID,1.35078,
2010-10-24, 00:58:04,VALID,917.206,VALID,0,VALID,96.7564,VALID,0,VALID,18.3756,VALID,22,VALID,1.27383,
2010-10-24, 00:59:04,VALID,917.201,VALID,0,VALID,96.764,VALID,0,VALID,18.377,VALID,22,VALID,1.15703,
2010-10-24, 01:00:04,VALID,917.182,VALID,0,VALID,96.7869,VALID,0,VALID,18.3575,VALID,22,VALID,0.865234,
2010-10-24, 01:01:04,VALID,917.14,VALID,0,VALID,96.8174,VALID,0,VALID,18.3589,VALID,22,VALID,1.3875,
2010-10-24, 01:02:04,VALID,917.128,VALID,0,VALID,96.8631,VALID,0,VALID,18.3784,VALID,25,VALID,1.31133,
2010-10-24, 01:03:04,VALID,917.116,VALID,0,VALID,96.8707,VALID,0,VALID,18.338,VALID,25,VALID,0.883594,
2010-10-24, 01:04:04,VALID,917.088,VALID,0,VALID,96.7411,VALID,0,VALID,18.2796,VALID,12,VALID,1.42852,
2010-10-24, 01:05:04,VALID,917.105,VALID,0,VALID,96.7259,VALID,0,VALID,18.2796,VALID,2,VALID,0.621484,
2010-10-24, 01:06:04,VALID,917.087,VALID,0,VALID,96.7335,VALID,0,VALID,18.2796,VALID,2,VALID,0.691797,
2010-10-24, 01:07:04,VALID,917.084,VALID,0,VALID,96.7488,VALID,0,VALID,18.3185,VALID,2,VALID,0.741406,
2010-10-24, 01:08:04,VALID,917.088,VALID,0,VALID,96.7945,VALID,0,VALID,18.338,VALID,2,VALID,0.596094,
2010-10-24, 01:09:04,VALID,917.073,VALID,0,VALID,96.7259,VALID,0,VALID,18.3784,VALID,2,VALID,0.940625,
2010-10-24, 01:10:04,VALID,917.074,VALID,0,VALID,96.6649,VALID,0,VALID,18.2977,VALID,2,VALID,1.13164,
2010-10-24, 01:11:04,VALID,917.065,VALID,0,VALID,96.6192,VALID,0,VALID,18.338,VALID,2,VALID,0.805469,
2010-10-24, 01:12:04,VALID,917.055,VALID,0,VALID,96.6497,VALID,0,VALID,18.3575,VALID,2,VALID,0.939844,
2010-10-24, 01:13:04,VALID,917.092,VALID,0,VALID,96.6802,VALID,0,VALID,18.3575,VALID,2,VALID,0.895312,
2010-10-24, 01:14:04,VALID,917.057,VALID,0,VALID,96.6115,VALID,0,VALID,18.338,VALID,2,VALID,0.471875,
2010-10-24, 01:15:04,VALID,917.058,VALID,0,VALID,96.5582,VALID,0,VALID,18.338,VALID,2,VALID,1.20313,
2010-10-24, 01:16:04,VALID,917.047,VALID,0,VALID,96.4515,VALID,0,VALID,18.3185,VALID,2,VALID,1.12812,
2010-10-24, 01:17:04,VALID,917.027,VALID,0,VALID,96.3524,VALID,0,VALID,18.3185,VALID,2,VALID,1.1332,
2010-10-24, 01:18:04,VALID,917.024,VALID,0,VALID,96.1541,VALID,0,VALID,18.3185,VALID,2,VALID,1.27891,
2010-10-24, 01:19:04,VALID,917,VALID,0,VALID,95.9941,VALID,0,VALID,18.338,VALID,20,VALID,1.10117,
2010-10-24, 01:20:04,VALID,916.999,VALID,0,VALID,95.834,VALID,0,VALID,18.3575,VALID,341,VALID,0.855859,
2010-10-24, 01:21:04,VALID,916.973,VALID,0,VALID,95.6967,VALID,0,VALID,18.3575,VALID,341,VALID,1.14727,
2010-10-24, 01:22:04,VALID,916.97,VALID,0,VALID,95.59,VALID,0,VALID,18.3575,VALID,341,VALID,1.31016,
2010-10-24, 01:23:04,VALID,916.971,VALID,0,VALID,95.6281,VALID,0,VALID,18.377,VALID,341,VALID,1.11328,
2010-10-24, 01:24:04,VALID,916.881,VALID,0,VALID,95.712,VALID,0,VALID,18.377,VALID,341,VALID,0.880078,
2010-10-24, 01:25:04,VALID,916.929,VALID,0,VALID,95.7806,VALID,0,VALID,18.377,VALID,341,VALID,0.316797,
2010-10-24, 01:26:04,VALID,916.915,VALID,0,VALID,95.8263,VALID,0,VALID,18.3366,VALID,341,VALID,0.499219,
2010-10-24, 01:27:04,VALID,916.948,VALID,0,VALID,95.7958,VALID,0,VALID,18.338,VALID,341,VALID,0.430078,
2010-10-24, 01:28:04,VALID,916.925,VALID,0,VALID,95.773,VALID,0,VALID,18.3185,VALID,341,VALID,0.527344,
2010-10-24, 01:29:04,VALID,916.944,VALID,0,VALID,95.9407,VALID,0,VALID,18.3575,VALID,341,VALID,0.383203,
2010-10-24, 01:30:04,VALID,916.922,VALID,0,VALID,96.0779,VALID,0,VALID,18.377,VALID,341,VALID,0,
2010-10-24, 01:31:04,VALID,916.934,VALID,0,VALID,96.1694,VALID,0,VALID,18.377,VALID,341,VALID,0.189453,
2010-10-24, 01:32:04,VALID,916.894,VALID,0,VALID,96.177,VALID,0,VALID,18.3575,VALID,341,VALID,0.249219,
2010-10-24, 01:33:04,VALID,916.888,VALID,0,VALID,96.2456,VALID,0,VALID,18.3575,VALID,341,VALID,1.08203,
2010-10-24, 01:34:04,VALID,916.877,VALID,0,VALID,96.1999,VALID,0,VALID,18.338,VALID,341,VALID,0.865625,
2010-10-24, 01:35:04,VALID,916.835,VALID,0,VALID,96.1084,VALID,0,VALID,18.3185,VALID,341,VALID,0.994141,
2010-10-24, 01:36:04,VALID,916.81,VALID,0,VALID,95.8873,VALID,0,VALID,18.2796,VALID,342,VALID,1.24336,
2010-10-24, 01:37:04,VALID,916.778,VALID,0,VALID,95.8187,VALID,0,VALID,18.299,VALID,360,VALID,1.09922,
2010-10-24, 01:38:04,VALID,916.776,VALID,0,VALID,95.468,VALID,0,VALID,18.2796,VALID,48,VALID,0.661328,
2010-10-24, 01:39:04,VALID,916.763,VALID,0,VALID,95.0335,VALID,0,VALID,18.299,VALID,345,VALID,1.05234,
2010-10-24, 01:40:04,VALID,916.736,VALID,0,VALID,94.9115,VALID,0,VALID,18.3366,VALID,286,VALID,1.06094,
2010-10-24, 01:41:04,VALID,916.722,VALID,0,VALID,95.3003,VALID,0,VALID,18.3756,VALID,286,VALID,1.05586,
2010-10-24, 01:42:04,VALID,916.697,VALID,0,VALID,95.6967,VALID,0,VALID,18.3965,VALID,286,VALID,0.251563,
2010-10-24, 01:43:04,VALID,916.591,VALID,0,VALID,95.9026,VALID,0,VALID,18.377,VALID,286,VALID,0.490625,
2010-10-24, 01:44:04,VALID,916.632,VALID,0,VALID,96.0169,VALID,0,VALID,18.338,VALID,286,VALID,0.435937,
2010-10-24, 01:45:04,VALID,916.599,VALID,0,VALID,95.9636,VALID,0,VALID,18.2796,VALID,286,VALID,0.883594,
2010-10-24, 01:46:04,VALID,916.585,VALID,0,VALID,95.834,VALID,0,VALID,18.2406,VALID,327,VALID,1.06367,
2010-10-24, 01:47:04,VALID,916.556,VALID,0,VALID,95.6586,VALID,0,VALID,18.2392,VALID,319,VALID,0.477734,
2010-10-24, 01:48:04,VALID,916.519,VALID,0,VALID,95.3689,VALID,0,VALID,18.2796,VALID,319,VALID,0.281641,
2010-10-24, 01:49:04,VALID,916.513,VALID,0,VALID,95.2775,VALID,0,VALID,18.338,VALID,319,VALID,0.339063,
2010-10-24, 01:50:04,VALID,916.465,VALID,0,VALID,95.2393,VALID,0,VALID,18.338,VALID,319,VALID,0.406641,
2010-10-24, 01:51:04,VALID,916.455,VALID,0,VALID,95.0259,VALID,0,VALID,18.338,VALID,319,VALID,0,
2010-10-24, 01:52:04,VALID,916.424,VALID,0,VALID,95.1326,VALID,0,VALID,18.3172,VALID,319,VALID,0.231641,
2010-10-24, 01:53:04,VALID,916.441,VALID,0,VALID,95.3537,VALID,0,VALID,18.3366,VALID,319,VALID,0.280078,
2010-10-24, 01:54:04,VALID,916.432,VALID,0,VALID,95.1402,VALID,0,VALID,18.3185,VALID,319,VALID,0.550391,
2010-10-24, 01:55:04,VALID,916.398,VALID,0,VALID,94.9878,VALID,0,VALID,18.3185,VALID,319,VALID,0.576953,
2010-10-24, 01:56:04,VALID,916.383,VALID,0,VALID,94.9649,VALID,0,VALID,18.338,VALID,319,VALID,0.523828,
2010-10-24, 01:57:04,VALID,916.38,VALID,0,VALID,94.8658,VALID,0,VALID,18.2796,VALID,319,VALID,0.806641,
2010-10-24, 01:58:04,VALID,916.336,VALID,0,VALID,94.7057,VALID,0,VALID,18.299,VALID,319,VALID,1.19453,
2010-10-24, 01:59:04,VALID,916.343,VALID,0,VALID,94.9573,VALID,0,VALID,18.299,VALID,319,VALID,0.448438,
2010-10-24, 02:00:04,VALID,916.334,VALID,0,VALID,95.2165,VALID,0,VALID,18.299,VALID,247,VALID,0.916406,
2010-10-24, 02:01:04,VALID,916.281,VALID,0,VALID,95.4299,VALID,0,VALID,18.2796,VALID,248,VALID,0.766797,
2010-10-24, 02:02:04,VALID,916.25,VALID,0,VALID,95.5214,VALID,0,VALID,18.2601,VALID,248,VALID,0.441797,
2010-10-24, 02:03:04,VALID,916.224,VALID,0,VALID,95.2546,VALID,0,VALID,18.2211,VALID,247,VALID,0.719141,
2010-10-24, 02:04:04,VALID,916.21,VALID,0,VALID,95.2546,VALID,0,VALID,18.299,VALID,247,VALID,0.151562,
2010-10-24, 02:05:04,VALID,916.223,VALID,0,VALID,95.4833,VALID,0,VALID,18.3185,VALID,247,VALID,0.473437,
2010-10-24, 02:06:04,VALID,916.245,VALID,0,VALID,95.529,VALID,0,VALID,18.3394,VALID,247,VALID,0.347266,
2010-10-24, 02:07:04,VALID,916.219,VALID,0,VALID,95.4604,VALID,0,VALID,18.2796,VALID,247,VALID,0.498047,
2010-10-24, 02:08:04,VALID,916.21,VALID,0,VALID,95.3994,VALID,0,VALID,18.2211,VALID,248,VALID,0.710938,
2010-10-24, 02:09:04,VALID,916.2,VALID,0,VALID,95.4604,VALID,0,VALID,18.2016,VALID,247,VALID,0.562109,
2010-10-24, 02:10:04,VALID,916.151,VALID,0,VALID,95.5748,VALID,0,VALID,18.1821,VALID,247,VALID,0.820313,
2010-10-24, 02:11:04,VALID,916.134,VALID,0,VALID,95.7501,VALID,0,VALID,18.1821,VALID,248,VALID,1.09727,
2010-10-24, 02:12:04,VALID,916.145,VALID,0,VALID,95.8873,VALID,0,VALID,18.1821,VALID,247,VALID,0.854688,
2010-10-24, 02:13:04,VALID,916.098,VALID,0,VALID,95.9941,VALID,0,VALID,18.1417,VALID,247,VALID,0.683594,
2010-10-24, 02:14:04,VALID,916.084,VALID,0,VALID,96.0932,VALID,0,VALID,18.1431,VALID,247,VALID,0.678906,
2010-10-24, 02:15:04,VALID,916.082,VALID,0,VALID,96.1846,VALID,0,VALID,18.1236,VALID,248,VALID,0.848437,
2010-10-24, 02:16:04,VALID,916.053,VALID,0,VALID,96.177,VALID,0,VALID,18.1041,VALID,247,VALID,0.832422,
2010-10-24, 02:17:04,VALID,916.01,VALID,0,VALID,96.1541,VALID,0,VALID,18.1041,VALID,247,VALID,0.690625,
2010-10-24, 02:18:04,VALID,916.024,VALID,0,VALID,96.1465,VALID,0,VALID,18.1431,VALID,247,VALID,0.699219,
2010-10-24, 02:19:04,VALID,916.001,VALID,0,VALID,96.055,VALID,0,VALID,18.1431,VALID,247,VALID,0.710547,
2010-10-24, 02:20:04,VALID,915.965,VALID,0,VALID,96.0474,VALID,0,VALID,18.1626,VALID,247,VALID,0.359375,
2010-10-24, 02:21:04,VALID,915.938,VALID,0,VALID,96.0779,VALID,0,VALID,18.1821,VALID,247,VALID,0.241406,
2010-10-24, 02:22:04,VALID,915.958,VALID,0,VALID,96.1694,VALID,0,VALID,18.2016,VALID,248,VALID,0.189844,
2010-10-24, 02:23:04,VALID,915.927,VALID,0,VALID,96.1999,VALID,0,VALID,18.2211,VALID,248,VALID,0,
2010-10-24, 02:24:04,VALID,915.865,VALID,0,VALID,96.2609,VALID,0,VALID,18.2406,VALID,248,VALID,0,
2010-10-24, 02:25:04,VALID,915.864,VALID,0,VALID,96.2609,VALID,0,VALID,18.2211,VALID,247,VALID,0.192578,
2010-10-24, 02:26:04,VALID,915.852,VALID,0,VALID,96.2837,VALID,0,VALID,18.2016,VALID,247,VALID,0.541016,
2010-10-24, 02:27:04,VALID,915.831,VALID,0,VALID,96.3447,VALID,0,VALID,18.2211,VALID,247,VALID,0.513281,
2010-10-24, 02:28:04,VALID,915.836,VALID,0,VALID,96.3905,VALID,0,VALID,18.2016,VALID,247,VALID,0.467578,
2010-10-24, 02:29:04,VALID,915.794,VALID,0,VALID,96.3371,VALID,0,VALID,18.1626,VALID,247,VALID,0.614844,
2010-10-24, 02:30:04,VALID,915.787,VALID,0,VALID,96.4438,VALID,0,VALID,18.1626,VALID,247,VALID,1.18438,
2010-10-24, 02:31:04,VALID,915.777,VALID,0,VALID,96.4896,VALID,0,VALID,18.1626,VALID,247,VALID,1.10273,
2010-10-24, 02:32:04,VALID,915.755,VALID,0,VALID,96.5429,VALID,0,VALID,18.164,VALID,247,VALID,0.913672,
2010-10-24, 02:33:04,VALID,915.74,VALID,0,VALID,96.5429,VALID,0,VALID,18.1041,VALID,247,VALID,0.834375,
2010-10-24, 02:34:04,VALID,915.763,VALID,0,VALID,96.4743,VALID,0,VALID,18.0846,VALID,247,VALID,1.15078,
2010-10-24, 02:35:04,VALID,915.744,VALID,0,VALID,96.4438,VALID,0,VALID,18.0651,VALID,247,VALID,1.39336,
2010-10-24, 02:36:04,VALID,915.727,VALID,0,VALID,96.421,VALID,0,VALID,18.0846,VALID,231,VALID,1.1918,
2010-10-24, 02:37:04,VALID,915.729,VALID,0,VALID,96.4286,VALID,0,VALID,18.0651,VALID,129,VALID,1.33047,
2010-10-24, 02:38:04,VALID,915.722,VALID,0,VALID,96.4362,VALID,0,VALID,18.0651,VALID,129,VALID,1.16406,
2010-10-24, 02:39:04,VALID,915.722,VALID,0,VALID,96.4972,VALID,0,VALID,18.0846,VALID,129,VALID,0.891406,
2010-10-24, 02:40:04,VALID,915.698,VALID,0,VALID,96.5429,VALID,0,VALID,18.1041,VALID,129,VALID,1.01523,
2010-10-24, 02:41:04,VALID,915.676,VALID,0,VALID,96.6192,VALID,0,VALID,18.1236,VALID,129,VALID,0.626562,
2010-10-24, 02:42:04,VALID,915.656,VALID,0,VALID,96.6878,VALID,0,VALID,18.1236,VALID,129,VALID,0.682422,
2010-10-24, 02:43:04,VALID,915.663,VALID,0,VALID,96.6802,VALID,0,VALID,18.1431,VALID,162,VALID,0.767578,
2010-10-24, 02:44:04,VALID,915.636,VALID,0,VALID,96.7107,VALID,0.107441,VALID,18.1417,VALID,162,VALID,0.362109,
2010-10-24, 02:45:04,VALID,915.615,VALID,0,VALID,96.7335,VALID,0.107441,VALID,18.1417,VALID,153,VALID,0.855469,
2010-10-24, 02:46:04,VALID,915.647,VALID,0,VALID,96.7793,VALID,0.107441,VALID,18.1417,VALID,153,VALID,0.438281,
2010-10-24, 02:47:04,VALID,915.619,VALID,0,VALID,96.7793,VALID,0,VALID,18.1222,VALID,153,VALID,0.613281,
2010-10-24, 02:48:04,VALID,915.606,VALID,0,VALID,96.7945,VALID,0,VALID,18.1028,VALID,153,VALID,0.660547,
2010-10-24, 02:49:04,VALID,915.598,VALID,0,VALID,96.825,VALID,0,VALID,18.1222,VALID,153,VALID,0.482422,
2010-10-24, 02:50:04,VALID,915.57,VALID,0,VALID,96.8098,VALID,0.107441,VALID,18.1222,VALID,127,VALID,1.20547,
2010-10-24, 02:51:04,VALID,915.582,VALID,0,VALID,96.8326,VALID,0,VALID,18.1417,VALID,127,VALID,0.907031,
2010-10-24, 02:52:04,VALID,915.559,VALID,0,VALID,96.8098,VALID,0,VALID,18.1222,VALID,126,VALID,1.1207,
2010-10-24, 02:53:04,VALID,915.574,VALID,0,VALID,96.7564,VALID,0,VALID,18.0833,VALID,126,VALID,1.56953,
2010-10-24, 02:54:04,VALID,915.569,VALID,0,VALID,96.764,VALID,0.107441,VALID,18.1028,VALID,126,VALID,0.872656,
2010-10-24, 02:55:04,VALID,915.546,VALID,0,VALID,96.764,VALID,0.107441,VALID,18.1028,VALID,127,VALID,0.920703,
2010-10-24, 02:56:04,VALID,915.559,VALID,0,VALID,96.703,VALID,0.107441,VALID,18.1028,VALID,127,VALID,1.09687,
2010-10-24, 02:57:04,VALID,915.534,VALID,0,VALID,96.6802,VALID,0,VALID,18.1028,VALID,127,VALID,1.12617,
2010-10-24, 02:58:04,VALID,915.545,VALID,0,VALID,96.6725,VALID,0,VALID,18.1236,VALID,127,VALID,0.739844,
2010-10-24, 02:59:04,VALID,915.538,VALID,0,VALID,96.6268,VALID,0,VALID,18.1236,VALID,127,VALID,0.850391,
2010-10-24, 03:00:04,VALID,915.534,VALID,0,VALID,96.5887,VALID,0,VALID,18.1236,VALID,127,VALID,1.00977,
2010-10-24, 03:01:04,VALID,915.509,VALID,0,VALID,96.5887,VALID,0,VALID,18.125,VALID,127,VALID,0.841406,
2010-10-24, 03:02:04,VALID,915.504,VALID,0,VALID,96.5582,VALID,0,VALID,18.1445,VALID,127,VALID,0.860156,
2010-10-24, 03:03:04,VALID,915.527,VALID,0,VALID,96.4286,VALID,0,VALID,18.0846,VALID,127,VALID,0.580078,
2010-10-24, 03:04:04,VALID,915.492,VALID,0,VALID,96.4286,VALID,0,VALID,18.1236,VALID,127,VALID,0.499609,
2010-10-24, 03:05:04,VALID,915.479,VALID,0,VALID,96.3981,VALID,0,VALID,18.1626,VALID,127,VALID,0.851563,
2010-10-24, 03:06:04,VALID,915.436,VALID,0,VALID,96.3981,VALID,0,VALID,18.1626,VALID,127,VALID,0.794531,
2010-10-24, 03:07:04,VALID,915.428,VALID,0,VALID,96.4133,VALID,0,VALID,18.1821,VALID,127,VALID,1.15117,
2010-10-24, 03:08:04,VALID,915.433,VALID,0,VALID,96.3829,VALID,0,VALID,18.1626,VALID,127,VALID,0.827734,
2010-10-24, 03:09:04,VALID,915.438,VALID,0,VALID,96.3676,VALID,0,VALID,18.1821,VALID,127,VALID,0.608984,
2010-10-24, 03:10:04,VALID,915.408,VALID,0,VALID,96.3829,VALID,0,VALID,18.1821,VALID,127,VALID,1.0668,
2010-10-24, 03:11:04,VALID,915.417,VALID,0,VALID,96.4133,VALID,0,VALID,18.203,VALID,127,VALID,0.803906,
2010-10-24, 03:12:04,VALID,915.418,VALID,0,VALID,96.3905,VALID,0,VALID,18.203,VALID,127,VALID,0.835938,
2010-10-24, 03:13:04,VALID,915.389,VALID,0,VALID,96.3371,VALID,0,VALID,18.1431,VALID,127,VALID,1.00078,
2010-10-24, 03:14:04,VALID,915.391,VALID,0,VALID,96.3295,VALID,0,VALID,18.1445,VALID,127,VALID,0.696094,
2010-10-24, 03:15:04,VALID,915.388,VALID,0,VALID,96.3829,VALID,0,VALID,18.1626,VALID,127,VALID,0.487109,
2010-10-24, 03:16:04,VALID,915.414,VALID,0,VALID,96.3447,VALID,0,VALID,18.1431,VALID,127,VALID,0.992969,
2010-10-24, 03:17:04,VALID,915.387,VALID,0,VALID,96.3524,VALID,0,VALID,18.1236,VALID,135,VALID,1.025,
2010-10-24, 03:18:04,VALID,915.4,VALID,0,VALID,96.3371,VALID,0,VALID,18.1431,VALID,148,VALID,0.701563,
2010-10-24, 03:19:04,VALID,915.369,VALID,0,VALID,96.3447,VALID,0,VALID,18.1236,VALID,148,VALID,0.799609,
2010-10-24, 03:20:04,VALID,915.334,VALID,0,VALID,96.3447,VALID,0,VALID,18.1431,VALID,148,VALID,0.696875,
2010-10-24, 03:21:04,VALID,915.334,VALID,0,VALID,96.3066,VALID,0,VALID,18.1431,VALID,136,VALID,0.982422,
2010-10-24, 03:22:04,VALID,915.318,VALID,0,VALID,96.3295,VALID,0,VALID,18.1431,VALID,132,VALID,0.9125,
2010-10-24, 03:23:04,VALID,915.32,VALID,0,VALID,96.3676,VALID,0,VALID,18.164,VALID,142,VALID,1.225,
2010-10-24, 03:24:04,VALID,915.318,VALID,0,VALID,96.3524,VALID,0,VALID,18.1236,VALID,150,VALID,1.28281,
2010-10-24, 03:25:04,VALID,915.345,VALID,0,VALID,96.2837,VALID,0,VALID,18.1041,VALID,143,VALID,1.49297,
2010-10-24, 03:26:04,VALID,915.348,VALID,0,VALID,96.2837,VALID,0,VALID,18.0651,VALID,142,VALID,1.33047,
2010-10-24, 03:27:04,VALID,915.345,VALID,0,VALID,96.1923,VALID,0,VALID,18.0457,VALID,124,VALID,1.41289,
2010-10-24, 03:28:04,VALID,915.353,VALID,0,VALID,96.1465,VALID,0.107441,VALID,18.0443,VALID,134,VALID,1.24219,
2010-10-24, 03:29:04,VALID,915.362,VALID,0,VALID,96.1236,VALID,0,VALID,18.0443,VALID,150,VALID,1.11563,
2010-10-24, 03:30:04,VALID,915.368,VALID,0,VALID,96.1618,VALID,0,VALID,18.0443,VALID,144,VALID,1.01719,
2010-10-24, 03:31:04,VALID,915.36,VALID,0,VALID,96.177,VALID,0,VALID,18.0248,VALID,136,VALID,0.934375,
2010-10-24, 03:32:04,VALID,915.356,VALID,0,VALID,96.2456,VALID,0.107441,VALID,18.0248,VALID,136,VALID,0.644531,
2010-10-24, 03:33:04,VALID,915.37,VALID,0,VALID,96.1923,VALID,0.107441,VALID,18.0053,VALID,136,VALID,0.921875,
2010-10-24, 03:34:04,VALID,915.352,VALID,0,VALID,96.1999,VALID,0.107441,VALID,18.0053,VALID,136,VALID,0.505469,
2010-10-24, 03:35:04,VALID,915.372,VALID,0,VALID,96.1389,VALID,0.107441,VALID,18.0248,VALID,136,VALID,0.936328,
2010-10-24, 03:36:04,VALID,915.392,VALID,0,VALID,96.1541,VALID,0.107441,VALID,18.0443,VALID,136,VALID,0.683203,
2010-10-24, 03:37:04,VALID,915.373,VALID,0,VALID,96.0779,VALID,0,VALID,18.0443,VALID,136,VALID,1.13672,
2010-10-24, 03:38:04,VALID,915.39,VALID,0,VALID,96.0093,VALID,0.107441,VALID,18.0443,VALID,136,VALID,0.907031,
2010-10-24, 03:39:04,VALID,915.369,VALID,0,VALID,95.8797,VALID,0.107441,VALID,18.0443,VALID,136,VALID,0.882422,
2010-10-24, 03:40:04,VALID,915.35,VALID,0,VALID,95.7654,VALID,0.107441,VALID,18.0429,VALID,133,VALID,1.00469,
2010-10-24, 03:41:04,VALID,915.343,VALID,0,VALID,95.6053,VALID,0.107441,VALID,18.0638,VALID,133,VALID,0.976953,
2010-10-24, 03:42:04,VALID,915.311,VALID,0,VALID,95.5595,VALID,0,VALID,18.0638,VALID,125,VALID,1.33672,
2010-10-24, 03:43:04,VALID,915.297,VALID,0,VALID,95.4757,VALID,0,VALID,18.0638,VALID,122,VALID,0.888281,
2010-10-24, 03:44:04,VALID,915.269,VALID,0,VALID,95.3461,VALID,0,VALID,18.0846,VALID,122,VALID,0.895312,
2010-10-24, 03:45:04,VALID,915.286,VALID,0,VALID,95.3156,VALID,0,VALID,18.0846,VALID,122,VALID,0.619531,